Regional Weather Roundup
Issued by NWS

Home | Current Version | Previous Version | Graphics & Text | Print | Product List | Glossary Off
Versions: 1 2 3 4 5 6 7 8 9 10 11 12 13 14 15 16 17 18 19 20 21 22 23 24 25 26 27 28 29 30 31 32 33 34 35 36 37 38 39 40 41 42 43 44 45 46 47 48 49 50

000
ASUS43 KMKX 051011
RWRWI

WISCONSIN REGIONAL WEATHER ROUNDUP
NATIONAL WEATHER SERVICE MILWAUKEE/SULLIVAN WI
500 AM CDT THU MAY 05 2016

NOTE: "FAIR" INDICATES FEW OR NO CLOUDS BELOW 12,000 FEET WITH NO
SIGNIFICANT WEATHER AND/OR OBSTRUCTIONS TO VISIBILITY.

WIZ001-002-006>008-014>016-023>028-051100-
NORTHWEST WISCONSIN

CITY           SKY/WX    TMP DP  RH WIND       PRES   REMARKS
SUPERIOR ARPT  MIX PCPN  34  33  96 CALM      30.03R
ASHLAND        CLOUDY    30  29  96 CALM      30.02R
HAYWARD        PTCLDY    30  26  85 NE3       30.02R
SIREN          CLOUDY    36  30  80 CALM      30.01S
CUMBERLAND     PTCLDY    32  30  93 CALM      30.01S
RICE LAKE      PTCLDY    34  32  90 CALM      30.03S
CHETEK         PTCLDY    32  30  94 CALM      30.02S
LADYSMITH      CLOUDY    31  28  90 CALM      30.03R
EAU CLAIRE     CLEAR     31  29  92 CALM      30.02R
MENOMONIE      MOCLDY    34  29  82 CALM      30.03S
NEW RICHMOND   MOCLDY    37  32  84 CALM      30.02S
OSCEOLA        CLOUDY    38  33  80 CALM      30.04S
$$

WIZ003>005-009-010-017-018-051100-
NORTH CENTRAL WISCONSIN

CITY           SKY/WX    TMP DP  RH WIND       PRES   REMARKS
MANITOWISH WTR MOCLDY    29  29 100 CALM      30.00R FOG
ARBOR VITAE    CLOUDY    29  27  93 CALM      30.00R
WOODRUFF       CLOUDY    29  27  93 CALM      30.00R
RHINELANDER    CLEAR     29  27  92 CALM      30.00S FOG
EAGLE RIVER    CLEAR     26  26  99 CALM      29.99S
LAND O LAKES   CLOUDY    26  26  99 CALM      30.00S
PHILLIPS       CLOUDY    29  28  99 CALM      30.00S
TOMAHAWK       CLOUDY    27  26  96 CALM      30.01S
MEDFORD        PTCLDY    32  31  96 CALM      30.00R
MERRILL        CLOUDY    28  28  98 CALM      30.01S
$$

WIZ029-030-035-036-043>047-051100-
CENTRAL WISCONSIN

CITY           SKY/WX    TMP DP  RH WIND       PRES   REMARKS
WAUSAU         CLEAR     37  31  78 NW3       29.99R
MOSINEE        CLEAR     34  32  93 CALM      30.01S
MARSHFIELD     CLEAR     36  30  79 E6        29.99S WCI  31
STEVENS POINT  PTCLDY    30  28  90 CALM      30.01S
WAUPACA        PTCLDY    37  32  81 NW3       30.00R
WAUTOMA        CLEAR     31  31 100 NW3       30.00S
WISC RAPIDS    CLEAR     34  29  82 CALM      30.02R
CAMP DOUGLAS   CLEAR     30  30 100 W3        30.01R
$$

WIZ011>013-019>022-031-037>040-048>050-051100-
NORTHEAST WISCONSIN

CITY           SKY/WX    TMP DP  RH WIND       PRES   REMARKS
ANTIGO         CLEAR     32  30  94 CALM      30.00R
SHAWANO        CLEAR     37  32  80 N5        29.99S WCI  34
OCONTO         CLEAR     34  33  94 N5        29.99R WCI  30
STURGEON BAY   CLEAR     37  30  75 N9        30.00R WCI  31
GREEN BAY      CLEAR     35  31  85 N9        29.99R WCI  28
MANITOWOC      CLEAR     37  33  85 N8        29.97R WCI  31
APPLETON       CLEAR     34  30  86 N5        29.96S WCI  30
CLINTONVILLE   CLEAR     36  32  87 N5        29.99S WCI  32
OSHKOSH        CLEAR     36  30  79 N7        29.98R WCI  30
$$

WIZ032>034-041-042-053>061-051100-
SOUTHWEST WISCONSIN

CITY           SKY/WX    TMP DP  RH WIND       PRES   REMARKS
LA CROSSE      CLEAR     40  32  73 N5        30.02R
SPARTA         CLEAR     29  28  94 CALM      30.03R
VIROQUA        CLEAR     39  31  75 CALM      30.00R
BOSCOBEL       CLEAR     34  31  88 CALM      30.01R
PRAIRIE DU CHI   N/A     37  32  84 CALM      30.01R FOG
PLATTEVILLE    CLEAR     38  34  86 N5        29.98R WCI  34
$$

WIZ056-057-062-063-064-067-068-051100-
SOUTH CENTRAL WISCONSIN

CITY           SKY/WX    TMP DP  RH WIND       PRES   REMARKS
REEDSBURG      CLEAR     38  32  78 CALM      30.00R
BARABOO/DELLS  CLEAR     37  31  78 CALM      30.00R
LONE ROCK      CLEAR     38  32  79 N5        30.01R WCI  34
MINERAL POINT  CLEAR     41  32  70 N7        29.98S
MADISON        CLEAR     36  31  82 N6        29.98R WCI  31
MIDDLETON      CLEAR     36  33  87 CALM      29.99R
WATERTOWN      CLEAR     36  35  98 N7        29.96S WCI  30
MONROE         CLEAR     37  32  81 N7        29.97R WCI  32
JANESVILLE     CLEAR     39  34  81 N6        29.96R WCI  35
$$

WIZ051-052-058>065-066-070>072-051100-
SOUTHEAST WISCONSIN

CITY           SKY/WX    TMP DP  RH WIND       PRES   REMARKS
MILWAUKEE      MOCLDY    41  32  70 N14G22    29.93R
WAUKESHA       CLEAR     34  32  93 NW9       29.96R WCI  26
MILWAUKEE/TIMM PTCLDY    37  30  75 N10       29.95S WCI  30
RACINE         CLEAR     41  32  70 N16G24    29.94R
BURLINGTON     CLEAR     36  31  83 N7        29.94R WCI  31
KENOSHA        PTCLDY    40  32  73 N9        29.92R WCI  34
FOND DU LAC    CLEAR     37  31  78 NW10      29.98R WCI  30
SHEBOYGAN      CLOUDY    38  32  79 N8        29.95R WCI  32
WEST BEND      CLOUDY    37  32  81 N6        29.96R WCI  33
JUNEAU         CLEAR     35  32  87 N7        29.98R WCI  29
$$

LSZ147-162-051100-
LAKE SUPERIOR

STATION/POSITION TIME  TEMP    WIND        PRES    WAVE
                       AIR SEA DIR/SP/G            HT/PER
                 (UTC) (F)     (DEG/KT/KT) (MB)    (FT/S)
W MID LAKE BUOY  0950   37 36  170/  2/  4 1016.8F   1/ 5
DEVILS ISLAND    1000   38     190/  3/  4 1017.0R
SAXON HARBOR     0920   32     240/  2/ 25 1016.3S
$$

LMZ867-665-643>646-051100-
LAKE MICHIGAN

STATION/POSITION TIME  TEMP    WIND        PRES    WAVE
                       AIR SEA DIR/SP/G            HT/PER
                 (UTC) (F)     (DEG/KT/KT) (MB)    (FT/S)
CHAMBERS ISLAND  0900   38     330/ 10/ 12 1015.2R
N MID LAKE BUOY  0950   38 38  340/ 14/ 16 1014.4R   2/ 4
NORTHPORT PIER   0924   39     340/ 11/ 16 1014.9R
ALGOMA LAKESHORE 0815          330/  9/ 11   N/A
KEWAUNEE LAKESHO 0900   38     330/  7/  9 1013.6R
SHEBOYGAN LAKESH 1000   41     340/ 13/ 14 1015.0R
PORT WASHINGTON  0940   40     330/  8/ 12 1014.9R
S MID LAKE BUOY  0950   40 40   20/ 19/ 23 1011.9R   7/ 7
KENOSHA   LAKESH 1000   42     350/ 17/ 25 1013.2R
$$

TC  - TEMPERATURE IN CELSIUS
VSB - VISIBILITY IN STATUTE MILES
WCI - WIND CHILL INDEX
HX  - HEAT INDEX





USA.gov is the U.S. government's official web portal to all federal, state and local government web resources and services.